Rock Springs, WY

10:35 AM MST on November 21, 2017 (GMT -0700)
Rock Springs-Sweetwater

Weather History for KRKS - January, 2014

Change the Weather History Date:

Saturday, January 4, 2014

  Actual Average Record
Temperature  
Mean Temperature 19 °F 21 °F  
Max Temperature 26 °F 30 °F 46 °F (2012)
Min Temperature 11 °F 13 °F -24 °F (1974)
Degree Days  
Heating Degree Days 46 44  
Month to date heating degree days 151 176  
Since 1 July heating degree days 3374 3528  
Cooling Degree Days 0 0  
Month to date cooling degree days 0 0  
Year to date cooling degree days 0 0  
Moisture  
Dew Point 11 °F    
Average Humidity 74    
Maximum Humidity 88    
Minimum Humidity 60    
Precipitation  
Precipitation 0.01 in 0.02 in 0.29 in (1979)
Month to date precipitation 0.01 0.06  
Year to date precipitation 0.01 0.06  
Sea Level Pressure  
Sea Level Pressure 29.96 in    
Wind  
Wind Speed 12 mph (NNW)    
Max Wind Speed 28 mph    
Max Gust Speed 38 mph    
Visibility 7 miles    
Events Snow    
T = Trace of Precipitation, MM = Missing Value Source: NWS Daily Summary

Daily Weather History Graph

Daily Weather History Graph

Search for Another Location

Airport or City:

Trip Planner

Search our weather history database for the weather conditions in past years. The results will help you decide how hot, cold, wet, or windy it might be!

Date:

Astronomy

Jan. 04, 2014 Rise Set
Actual Time 7:43 AM MST 4:59 PM MST
Civil Twilight 7:11 AM MST 5:30 PM MST
Nautical Twilight 6:37 AM MST 6:05 PM MST
Astronomical Twilight 6:03 AM MST 6:39 PM MST
Moon 9:47 AM MST (1/4) 9:26 PM MST (1/4)
Length of Visible Light 10h 18m
Length of Day
9h 16m
Waxing Crescent, 16% of the Moon is Illuminated
Jan 4
Waxing Crescent
Jan 7
First Quarter
Jan 15
Full
Jan 23
Last Quarter
Jan 30
New

Hourly Weather History & Observations

Time (MST) Temp. Windchill Dew Point Humidity Pressure Visibility Wind Dir Wind Speed Gust Speed Precip Events Conditions
12:10 AM 26.1 °F 11.6 °F 17.1 °F 69% 29.76 in 6.0 mi West 21.9 mph 38.0 mph 0.00 in Snow Light Snow
12:18 AM 26.1 °F 12.3 °F 16.0 °F 66% 29.76 in 9.0 mi West 19.6 mph 32.2 mph 0.00 in   Overcast
12:54 AM 26.1 °F 14.0 °F 10.9 °F 53% 29.77 in 10.0 mi West 15.0 mph 24.2 mph 0.00 in   Overcast
1:54 AM 24.1 °F 13.7 °F 12.9 °F 62% 29.79 in 10.0 mi WNW 10.4 mph - N/A   Overcast
2:54 AM 21.9 °F 11.7 °F 14.0 °F 72% 29.83 in 10.0 mi West 9.2 mph - N/A   Overcast
3:54 AM 19.9 °F 10.1 °F 14.0 °F 78% 29.85 in 10.0 mi NNW 8.1 mph - N/A   Overcast
4:54 AM 19.0 °F 9.0 °F 14.0 °F 81% 29.87 in 10.0 mi NNE 8.1 mph - N/A   Overcast
5:54 AM 18.0 °F 6.9 °F 14.0 °F 84% 29.90 in 8.0 mi North 9.2 mph - 0.00 in Snow Light Snow
6:07 AM 18.0 °F 6.9 °F 14.0 °F 84% 29.81 in 2.5 mi NNE 9.2 mph - 0.00 in Snow Light Snow
6:14 AM 17.1 °F 5.0 °F 14.0 °F 88% 29.81 in 1.0 mi NNE 10.4 mph - 0.00 in Snow Light Snow
6:21 AM 17.1 °F 5.8 °F 14.0 °F 88% 29.82 in 0.8 mi NNE 9.2 mph - 0.00 in Snow Light Snow
6:28 AM 17.1 °F 7.6 °F 14.0 °F 88% 29.82 in 0.8 mi North 6.9 mph - 0.00 in Snow Light Snow
6:50 AM 17.6 °F 7.3 °F 14.0 °F 86% 29.83 in 1.2 mi NNE 8.1 mph - 0.01 in Snow Light Snow
6:54 AM 17.1 °F 6.6 °F 14.0 °F 88% 29.94 in 2.0 mi North 8.1 mph - 0.01 in Snow Light Snow
7:11 AM 16.0 °F 6.3 °F 14.0 °F 92% 29.83 in 2.5 mi North 6.9 mph - 0.00 in Snow Light Snow
7:19 AM 16.0 °F 6.3 °F 14.0 °F 92% 29.83 in 4.0 mi North 6.9 mph - 0.00 in Snow Light Snow
7:31 AM 16.0 °F 4.4 °F 12.9 °F 88% 29.84 in 2.5 mi NNE 9.2 mph - 0.00 in Snow Light Snow
7:41 AM 16.0 °F 3.6 °F 12.9 °F 88% 29.85 in 3.0 mi NNE 10.4 mph - 0.00 in Snow Light Snow
7:54 AM 16.0 °F 6.3 °F 12.9 °F 88% 29.97 in 3.0 mi NNE 6.9 mph - 0.00 in Snow Light Snow
8:12 AM 16.0 °F 2.3 °F 10.9 °F 81% 29.87 in 2.5 mi NNE 12.7 mph - 0.00 in Snow Light Snow
8:25 AM 16.0 °F 5.3 °F 10.9 °F 81% 29.88 in 1.5 mi NNE 8.1 mph - 0.00 in Snow Light Snow
8:45 AM 16.0 °F 7.4 °F 10.9 °F 81% 29.88 in 3.0 mi North 5.8 mph - 0.00 in Snow Light Snow
8:54 AM 16.0 °F 7.4 °F 10.9 °F 81% 30.01 in 4.0 mi NE 5.8 mph - 0.00 in Snow Light Snow
9:54 AM 16.0 °F 7.4 °F 10.9 °F 81% 30.05 in 10.0 mi NNE 5.8 mph - 0.00 in   Overcast
10:54 AM 17.1 °F 10.0 °F 10.9 °F 77% 30.06 in 10.0 mi NE 4.6 mph - 0.00 in   Overcast
11:54 AM 17.1 °F 6.6 °F 12.9 °F 84% 30.07 in 10.0 mi WSW 8.1 mph - N/A   Overcast
12:54 PM 19.0 °F 8.2 °F 12.9 °F 77% 30.06 in 10.0 mi West 9.2 mph - N/A   Mostly Cloudy
1:54 PM 18.0 °F 6.1 °F 8.1 °F 65% 30.08 in 10.0 mi NW 10.4 mph - N/A   Clear
2:54 PM 19.9 °F 7.3 °F 8.1 °F 60% 30.10 in 10.0 mi West 12.7 mph - N/A   Scattered Clouds
3:54 PM 19.9 °F 7.9 °F 9.0 °F 62% 30.12 in 10.0 mi West 11.5 mph - N/A   Overcast
4:54 PM 18.0 °F 5.4 °F 10.0 °F 71% 30.14 in 10.0 mi WSW 11.5 mph - N/A   Overcast
5:54 PM 16.0 °F 7.4 °F 10.9 °F 81% 30.17 in 10.0 mi West 5.8 mph - 0.00 in   Overcast
6:54 PM 14.0 °F -1.4 °F 5.0 °F 67% 30.19 in 10.0 mi West 15.0 mph - N/A   Mostly Cloudy
7:54 PM 12.0 °F -5.6 °F 3.9 °F 70% 30.22 in 10.0 mi WSW 18.4 mph - N/A   Clear
8:54 PM 12.0 °F -7.3 °F 6.1 °F 77% 30.21 in 10.0 mi West 23.0 mph - N/A   Clear
9:54 PM 12.0 °F -6.5 °F 6.1 °F 77% 30.21 in 10.0 mi West 20.7 mph - N/A   Clear
10:54 PM 10.9 °F -6.5 °F 3.9 °F 73% 30.22 in 10.0 mi WSW 17.3 mph - N/A   Clear
11:54 PM 12.0 °F -7.7 °F 7.0 °F 80% 30.19 in 10.0 mi WSW 24.2 mph - N/A   Overcast